Regional Weather Roundup
Issued by NWS

Home | Current Version | Previous Version | Graphics & Text | Print | Product List | Glossary On
Versions: 1 2 3 4 5 6 7 8 9 10 11 12 13 14 15 16 17 18 19 20 21 22 23 24 25 26 27 28 29 30 31 32 33 34 35 36 37 38 39 40 41 42 43 44 45 46 47 48 49 50
000
ASUS43 KDTX 071701
RWRMI
MICHIGAN HOURLY REGIONAL WEATHER ROUNDUP
NATIONAL WEATHER SERVICE DETROIT/PONTIAC MI
1200 PM EST WED DEC 07 2016

NOTE: "FAIR" INDICATES FEW OR NO CLOUDS BELOW 12,000 FEET WITH NO
SIGNIFICANT WEATHER AND/OR OBSTRUCTION TO VISIBILITY.

MIZ047>049-052>055-059>063-066>070-074>076-081>083-071800-
SOUTHEAST LOWER MICHIGAN

CITY           SKY/WX    TMP DP  RH WIND       PRES   REMARKS
ADRIAN         SUNNY     33  24  69 W12       30.05F WCI  24
ALMA           PTSUNNY   35  23  62 SW13G24   29.96S WCI  26
ANN ARBOR      MOSUNNY   34  25  69 SW17      30.02S WCI  23
BAD AXE        CLOUDY    33  23  67 W16G26    29.92F WCI  22
CARO           PTSUNNY   34  24  67 SW17G26   29.93F WCI  23
DETROIT CITY   MOSUNNY   34  24  67 SW14      30.01S WCI  25
DETROIT        PTSUNNY   35  25  66 SW16      30.03S WCI  25
FLINT          MOSUNNY   36  24  62 SW16G24   29.97F WCI  26
GROSSE ILE     PTSUNNY   35  26  69 SW13      30.03S WCI  26
HILLSDALE      SUNNY     32  23  69 W14       30.01F WCI  22
HOWELL         PTSUNNY   35  24  64 W17G24    29.98F WCI  25

CITY           SKY/WX    TMP DP  RH WIND       PRES   REMARKS
JACKSON        MOSUNNY   33  23  66 W15       30.01S WCI  23
LAMBERTVILLE   MOSUNNY   33  24  67 SW13      30.06F WCI  24
LANSING        MOSUNNY   36  22  56 W21       29.99S WCI  25
LAPEER         NOT AVBL
MASON          MOSUNNY   35  25  67 SW12G17   29.99F WCI  27
MONROE         MOSUNNY   34  27  76 SW13G18   30.04F WCI  25
MT. CLEMENS    MOSUNNY   37  24  60 SW15      29.97F WCI  28
PONTIAC        PTSUNNY   35  23  61 SW13G25   29.97S WCI  26
PORT HOPE        N/A     33  24  69 SW14G25   29.88F WCI  23
PORT HURON     MOSUNNY   36  25  64 SW7       29.98S WCI  30
TRI CITIES     MOSUNNY   34  23  64 W23G30    29.94S WCI  22
MIDLAND        PTSUNNY   34  20  57 SW21G26   29.92F WCI  22
TROY           SUNNY     37  22  55 W9G18     30.01S WCI  30
SAGINAW HB     MOSUNNY   36  23  60 SW16      29.94S WCI  26
$$
MIZ043>046-050>051-056>058-064>065-071>073-077>080-071800-
SOUTHWEST LOWER MICHIGAN

CITY           SKY/WX    TMP DP  RH WIND       PRES   REMARKS
BATTLE CREEK   MOSUNNY   36  25  64 W15       30.01S WCI  27
BENTON HARBOR  PTSUNNY   35  24  64 W16       30.07S WCI  25
BIG RAPIDS     CLOUDY    31  20  63 W16G25    29.92F WCI  20
COLDWATER      MOSUNNY   35  24  64 W15       30.03F WCI  25
FREMONT        CLOUDY    31  18  59 W10G21    29.97S WCI  22
HOLLAND        PTSUNNY   33  24  69 W20G25    30.02S WCI  21
GRAND RAPIDS   PTSUNNY   32  23  69 W17       30.00S WCI  21
IONIA          FAIR      34  25  69 W21       29.97S WCI  22
KALAMAZOO      MOSUNNY   35  23  61 W15       30.03S WCI  25
LUDINGTON      CLOUDY    29  21  73 W14G20    29.95S WCI  18
MARSHALL       MOSUNNY   36  25  65 SW10      30.01S WCI  28
MOUNT PLEASANT MOSUNNY   33  22  63 W13G21    29.93S WCI  24
MUSKEGON       CLOUDY    32  23  69 W14G23    30.00S WCI  22
SOUTH HAVEN    PTSUNNY   34  26  72 W15G21    30.05S WCI  24
$$
MIZ016>042-071800-
NORTHERN LOWER MICHIGAN

CITY           SKY/WX    TMP DP  RH WIND       PRES   REMARKS
ALPENA         CLOUDY    32  18  56 W15G28    29.82F WCI  22
BEAVER ISLAND  CLOUDY    29  22  75 SW21G32   29.78F WCI  16
BELLAIRE       CLOUDY    31  21  67 SW15G23   29.85F WCI  20
CADILLAC       CLOUDY    27  19  72 SW15G23   29.86F WCI  15
CHARLEVOIX     CLOUDY    31  21  66 SW18G33   29.84S WCI  19
FRANKFORT      CLOUDY    28  22  78 SW13G20   29.90F WCI  18
GAYLORD        CLOUDY    29  17  61 SW20G33   29.80R WCI  16
GRAYLING       CLOUDY    30  21  69 W20       29.85R WCI  17
HARBOR SPRINGS CLOUDY    31  23  70 SW23G31   29.79S WCI  18
HOUGHTON LAKE  CLOUDY    29  19  66 W17G31    29.87S WCI  17
MANISTEE       CLOUDY    29  22  75 SW15G23   29.93S WCI  18
OSCODA         PTSUNNY   35  20  53 MISG      29.85F
PELLSTON       FLURRIES  31  19  61 W20G28    29.78F WCI  19
ROGERS CITY    CLOUDY    32  21  65 SW13G23   29.81S WCI  22
TRAVERSE CITY  CLOUDY    30  19  63 W13G22    29.87S WCI  20
$$
MIZ007>008-015-071800-
EASTERN UPPER MICHIGAN

CITY           SKY/WX    TMP DP  RH WIND       PRES   REMARKS
MACKINAC ISLAN SNOW      28  26  91 W21G38    29.75S VSB 1/2 WCI  15
NEWBERRY       CLOUDY    24  15  68 SW17      29.74S WCI  11
MUNISING         N/A     26  14  60 SW10G21   29.76R WCI  16
$$
MIZ004>006-011>014-085-071800-
CENTRAL UPPER MICHIGAN

CITY           SKY/WX    TMP DP  RH WIND       PRES   REMARKS
MANISTIQUE     CLOUDY    25  13  61 W10G22    29.78F WCI  15
SAWYER-GWINN   FLURRIES  21  14  73 W16G23    29.72  WCI   7
$$
MIZ001>003-009>011-084-071800-
WESTERN UPPER MICHIGAN

CITY           SKY/WX    TMP DP  RH WIND       PRES   REMARKS
COPPER HARBOR    N/A     25  20  81 W10G22    29.64S WCI  15
$$

ABBREVIATIONS USED IN REMARKS
   TC - TEMPERATURE IN CELSIUS
  WCI - WIND CHILL INDEX
   HX - HEAT INDEX
  VSB - VISIBILITY




USA.gov is the U.S. government's official web portal to all federal, state and local government web resources and services.